Location: Greenwich
(51.4790°N, 0.0090°E)
Time: 05:55:50
(UTC+01:00)

Tiros 1 - Pass Details

Date: 27 April 2024
Orbit: 624 x 657 km, 48.4° (Epoch: 25 May)

Event Time Altitude Azimuth Distance (km) Brightness Sun altitude
Exits shadow 03:58:12 20° 244° (WSW) 1,442 8.4 -13.7°
Maximum altitude 03:59:57 26° 211° (SSW) 1,246 8.0 -13.5°
Drops below altitude 10° 04:03:43 10° 155° (SSE) 1,991 9.5 -13.1°
Sets 04:06:19 0° 142° (SE) 2,893 10.4 -12.8°
